This demonstration page uses our WeatherBlox Daily Observations layout. Learn more.

Left ArrowRight Arrow

46.99651, -120.54785

Hourly Observations for January 24, 2022

Temp ( °F °C ) Dew Point ( °F °C ) Humidity (%) Winds ( mph kmh ) Pressure ( in mb ) Visibility ( mi km ) Precip ( " mm )
12:53 am 00:53 Mostly Cloudy with Freezing Fog 25 -3.9 22 -5.6 88 88 ESE 3 6 30.33 1027 0 0 0.00 0.00
1:53 am 01:53 Mostly Cloudy with Freezing Fog 26 -3.3 22 -5.6 84 84 N 3 6 30.34 1027 0 0 0.00 0.00
2:53 am 02:53 Mostly Cloudy with Freezing Fog 26 -3.3 22 -5.6 84 84 W 5 7 30.34 1027 0 0 0.00 0.00
3:27 am 03:27 Mostly Cloudy with Freezing Fog 26 -3.3 22 -5.6 84 84 NW 6 9 30.36 1028 1 1 0.00 0.00
3:53 am 03:53 Mostly Cloudy with Mist and Fog 26 -3.3 23 -5 88 88 SSW 3 6 30.32 1027 1 1 0.00 0.00
4:53 am 04:53 Cloudy with Mist and Fog 26 -3.3 22 -5.6 84 84 SW 5 7 30.31 1026 1 2 0.00 0.00
5:13 am 05:13 Cloudy with Mist and Fog 26 -3.3 22 -5.6 84 84 SW 3 6 30.33 1027 1 1 0.00 0.00
5:20 am 05:20 Cloudy with Mist and Fog 26 -3.3 22 -5.6 84 84 WSW 3 6 30.32 1027 1 2 0.00 0.00
5:37 am 05:37 Mostly Cloudy with Mist and Fog 26 -3.3 22 -5.6 84 84 Calm 30.32 1027 1 1 0.00 0.00
5:53 am 05:53 Mostly Cloudy with Freezing Fog 26 -3.3 22 -5.6 84 84 Calm 30.28 1026 1 1 0.00 0.00
6:53 am 06:53 Mostly Cloudy with Freezing Fog 25 -3.9 21 -6.1 85 85 Calm 30.29 1026 1 1 0.00 0.00
7:53 am 07:53 Mostly Cloudy with Freezing Fog 25 -3.9 21 -6.1 85 85 WSW 3 6 30.28 1025 0 0 0.00 0.00
8:53 am 08:53 Mostly Cloudy with Freezing Fog 25 -3.9 22 -5.6 88 88 Calm 30.28 1025 0 0 0.00 0.00
9:53 am 09:53 Mostly Cloudy with Freezing Fog 25 -3.9 24 -4.4 96 96 Calm 30.28 1026 0 0 0.00 0.00
10:38 am 10:38 Mostly Cloudy with Haze 26 -3.3 21 -6.1 81 81 ESE 6 9 30.34 1028 1 1 0.00 0.00
10:49 am 10:49 Mostly Cloudy with Haze 27 -3 21 -6 80 80 ESE 8 13 30.34 1027 0 0 0.00 0.00
10:53 am 10:53 Mostly Cloudy with Freezing Fog 25 -3.9 22 -5.6 88 88 SSW 3 6 30.31 1026 0 0 0.00 0.00
11:39 am 11:39 Mostly Cloudy with Freezing Fog 26 -3.3 24 -4.4 92 92 Calm 30.36 1028 1 1 0.00 0.00
11:53 am 11:53 Cloudy with Freezing Fog 26 -3.3 23 -5 88 88 W 3 6 30.33 1027 1 1 0.00 0.00
12:53 pm 12:53 Cloudy with Freezing Fog 27 -2.8 23 -5 85 85 WNW 7 11 30.32 1027 1 1 0.00 0.00
1:12 pm 13:12 Cloudy with Mist and Fog 28 -2.2 24 -4.4 85 85 NNW 6 9 30.34 1028 1 2 0.00 0.00
1:34 pm 13:34 Cloudy with Mist and Fog 28 -2.2 24 -4.4 85 85 NE 3 6 30.34 1028 2 2 0.00 0.00
1:43 pm 13:43 Cloudy with Mist and Fog 29 -1.7 25 -3.9 85 85 Calm 30.34 1027 2 3 0.00 0.00
1:53 pm 13:53 Cloudy with Mist and Fog 29 -1.7 25 -3.9 85 85 NE 3 6 30.30 1026 3 4 0.00 0.00
2:28 pm 14:28 Cloudy with Haze 29 -1.7 24 -4.4 82 82 Calm 30.33 1027 1 2 0.00 0.00
2:36 pm 14:36 Cloudy with Haze 29 -1.7 24 -4.4 82 82 SE 5 7 30.33 1027 3 5 0.00 0.00
2:53 pm 14:53 Cloudy with Mist and Fog 28 -2.2 24 -4.4 85 85 ESE 3 6 30.30 1026 2 3 0.00 0.00
3:01 pm 15:01 Cloudy with Mist and Fog 28 -2.2 24 -4.4 85 85 ESE 6 9 30.34 1028 2 2 0.00 0.00
3:10 pm 15:10 Cloudy with Mist and Fog 28 -2.2 24 -4.4 85 85 SE 5 7 30.34 1028 3 5 0.00 0.00
3:43 pm 15:43 Cloudy with Mist and Fog 28 -2.2 24 -4.4 85 85 SE 5 7 30.35 1028 2 3 0.00 0.00
3:53 pm 15:53 Cloudy with Mist and Fog 28 -2.2 25 -3.9 88 88 SE 3 6 30.33 1027 2 3 0.00 0.00
4:04 pm 16:04 Cloudy with Mist and Fog 28 -2.2 25 -3.9 88 88 Calm 30.36 1028 1 2 0.00 0.00
4:11 pm 16:11 Cloudy with Freezing Fog 28 -2.2 24 -4.4 85 85 Calm 30.36 1028 1 1 0.00 0.00
4:35 pm 16:35 Mostly Cloudy with Freezing Fog 28 -2.2 24 -4.4 85 85 N 3 6 30.36 1028 0 0 0.00 0.00
4:53 pm 16:53 Mostly Cloudy with Freezing Fog 28 -2.2 24 -4.4 85 85 NNW 3 6 30.35 1028 0 0 0.00 0.00
5:23 pm 17:23 Mostly Cloudy with Freezing Fog 28 -2.2 24 -4.4 85 85 Calm 30.39 1029 1 1 0.00 0.00
5:36 pm 17:36 Mostly Cloudy with Freezing Fog 28 -2.2 24 -4.4 85 85 Calm 30.39 1029 0 0 0.00 0.00
5:53 pm 17:53 Mostly Cloudy with Freezing Fog 28 -2.2 24 -4.4 85 85 Calm 30.37 1029 0 0 0.00 0.00
6:53 pm 18:53 Mostly Cloudy with Freezing Fog 27 -2.8 23 -5 85 85 Calm 30.40 1029 0 0 0.00 0.00
7:53 pm 19:53 Mostly Cloudy with Freezing Fog 27 -2.8 23 -5 85 85 ENE 3 6 30.41 1030 0 0 0.00 0.00
8:53 pm 20:53 Mostly Cloudy with Freezing Fog 27 -2.8 23 -5 85 85 Calm 30.42 1030 0 0 0.00 0.00
9:53 pm 21:53 Mostly Cloudy with Freezing Fog 24 -4.4 20 -6.7 84 84 NE 3 6 30.45 1031 0 0 0.00 0.00
10:53 pm 22:53 Mostly Cloudy with Freezing Fog 24 -4.4 21 -6.1 88 88 Calm 30.47 1032 0 0 0.00 0.00
11:53 pm 23:53 Mostly Cloudy with Freezing Fog 24 -4.4 20 -6.7 84 84 N 3 6 30.48 1032 0 0 0.00 0.00

Powered by AerisWeather